• In Latvia
  • List of Countries
  • For 7 days
  • Water Temperature
  • Satellite Maps
  • Weather Map
  • Weather Widgets
  • user-avatar
    Login

    Hourly Weather Satif

    Today, 25 February, Saturday

    Time Temperature Precipitation Wind Pressure Humidity
    00:00 +8°C° 0 mm 1 mps 669 mmHg 92%
    01:00 +8°C° 0.1 mm 1 mps 669 mmHg 92%
    02:00 +8°C° 0.1 mm 1 mps 669 mmHg 92%
    03:00 +7°C° 0.1 mm 1 mps 669 mmHg 92%
    04:00 +7°C° 0.4 mm 1 mps 669 mmHg 93%
    05:00 +6°C° 0.4 mm 1 mps 669 mmHg 94%
    06:00 +6°C° 0 mm 1 mps 669 mmHg 95%
    07:00 +7°C° 0.5 mm 1 mps 669 mmHg 90%
    08:00 +8°C° 0.5 mm 1 mps 670 mmHg 85%
    09:00 +8°C° 0.5 mm 2 mps 671 mmHg 80%
    10:00 +8°C° 0.3 mm 2 mps 671 mmHg 80%
    11:00 +8°C° 0.3 mm 3 mps 671 mmHg 79%
    12:00 +8°C° 0.3 mm 3 mps 671 mmHg 79%
    13:00 +8°C° 0.1 mm 3 mps 671 mmHg 76%
    14:00 +8°C° 0.1 mm 3 mps 671 mmHg 73%
    15:00 +8°C° 0.1 mm 3 mps 671 mmHg 70%
    16:00 +7°C° 0 mm 3 mps 671 mmHg 76%
    17:00 +5°C° 0 mm 3 mps 671 mmHg 81%
    18:00 +4°C° 0 mm 2 mps 671 mmHg 86%
    19:00 +4°C° 0 mm 2 mps 671 mmHg 89%
    20:00 +3°C° 0 mm 2 mps 671 mmHg 92%
    21:00 +3°C° 0 mm 2 mps 672 mmHg 94%
    22:00 +3°C° 0 mm 2 mps 672 mmHg 94%
    23:00 +3°C° 0 mm 2 mps 672 mmHg 93%

    Tomorrow, 26 February, Sunday

    Time Temperature Precipitation Wind Pressure Humidity
    00:00 +3°C° 0 mm 2 mps 672 mmHg 92%
    01:00 +3°C° 0 mm 2 mps 672 mmHg 93%
    02:00 +3°C° 0 mm 2 mps 672 mmHg 93%
    03:00 +3°C° 0 mm 2 mps 672 mmHg 94%
    04:00 +3°C° 0 mm 2 mps 672 mmHg 94%
    05:00 +2°C° 0 mm 2 mps 672 mmHg 95%
    06:00 +2°C° 0 mm 2 mps 672 mmHg 95%
    07:00 +4°C° 0 mm 2 mps 673 mmHg 89%
    08:00 +5°C° 0 mm 2 mps 673 mmHg 83%
    09:00 +6°C° 0 mm 2 mps 674 mmHg 77%
    10:00 +7°C° 0 mm 2 mps 674 mmHg 72%
    11:00 +8°C° 0 mm 2 mps 674 mmHg 67%
    12:00 +9°C° 0 mm 2 mps 674 mmHg 62%
    13:00 +9°C° 0 mm 2 mps 674 mmHg 61%
    14:00 +10°C° 0 mm 2 mps 674 mmHg 60%
    15:00 +10°C° 0 mm 2 mps 674 mmHg 60%
    16:00 +8°C° 0 mm 2 mps 673 mmHg 69%
    17:00 +6°C° 0 mm 2 mps 673 mmHg 78%
    18:00 +5°C° 0 mm 1 mps 672 mmHg 87%
    19:00 +4°C° 0 mm 1 mps 672 mmHg 89%
    20:00 +3°C° 0 mm 1 mps 672 mmHg 91%
    21:00 +2°C° 0 mm 1 mps 672 mmHg 93%
    22:00 +2°C° 0 mm 1 mps 672 mmHg 93%
    23:00 +2°C° 0 mm 1 mps 672 mmHg 93%

    Day after tomorrow, 27 February, Monday

    Time Temperature Precipitation Wind Pressure Humidity
    00:00 +2°C° 0 mm 1 mps 672 mmHg 92%
    01:00 +2°C° 0 mm 1 mps 671 mmHg 92%
    02:00 +2°C° 0 mm 1 mps 671 mmHg 91%
    03:00 +2°C° 0 mm 1 mps 671 mmHg 91%
    04:00 +2°C° 0 mm 1 mps 671 mmHg 91%
    05:00 +2°C° 0 mm 1 mps 671 mmHg 90%
    06:00 +2°C° 0 mm 1 mps 671 mmHg 90%
    07:00 +5°C° 0 mm 1 mps 672 mmHg 79%
    08:00 +8°C° 0 mm 1 mps 673 mmHg 68%
    09:00 +11°C° 0 mm 1 mps 674 mmHg 56%
    10:00 +12°C° 0 mm 2 mps 674 mmHg 49%
    11:00 +14°C° 0 mm 2 mps 674 mmHg 41%
    12:00 +16°C° 0 mm 2 mps 674 mmHg 34%
    13:00 +16°C° 0 mm 2 mps 673 mmHg 35%
    14:00 +16°C° 0 mm 2 mps 673 mmHg 35%
    15:00 +16°C° 0 mm 2 mps 672 mmHg 36%
    16:00 +13°C° 0 mm 1 mps 672 mmHg 48%
    17:00 +9°C° 0 mm 1 mps 671 mmHg 60%
    18:00 +6°C° 0 mm 1 mps 670 mmHg 72%
    19:00 +6°C° 0 mm 1 mps 670 mmHg 75%
    20:00 +5°C° 0 mm 1 mps 670 mmHg 78%
    21:00 +4°C° 0 mm 0 mps 671 mmHg 81%
    22:00 +5°C° 0 mm 1 mps 671 mmHg 79%
    23:00 +5°C° 0 mm 1 mps 670 mmHg 77%

    28 February, Tuesday

    Time Temperature Precipitation Wind Pressure Humidity
    00:00 +5°C° 0 mm 1 mps 670 mmHg 76%
    01:00 +5°C° 0 mm 1 mps 670 mmHg 74%
    02:00 +5°C° 0 mm 1 mps 670 mmHg 72%
    03:00 +5°C° 0 mm 1 mps 670 mmHg 71%
    04:00 +4°C° 0 mm 1 mps 670 mmHg 73%
    05:00 +4°C° 0 mm 1 mps 670 mmHg 74%
    06:00 +4°C° 0 mm 1 mps 670 mmHg 76%
    07:00 +7°C° 0 mm 1 mps 671 mmHg 65%
    08:00 +10°C° 0 mm 1 mps 672 mmHg 54%
    09:00 +13°C° 0 mm 1 mps 673 mmHg 43%
    10:00 +14°C° 0 mm 1 mps 674 mmHg 40%
    11:00 +16°C° 0 mm 2 mps 674 mmHg 36%
    12:00 +17°C° 0 mm 2 mps 674 mmHg 32%
    13:00 +17°C° 0 mm 2 mps 674 mmHg 34%
    14:00 +17°C° 0 mm 2 mps 673 mmHg 35%
    15:00 +17°C° 0 mm 2 mps 673 mmHg 37%
    16:00 +14°C° 0 mm 2 mps 672 mmHg 49%
    17:00 +11°C° 0 mm 1 mps 672 mmHg 62%
    18:00 +8°C° 0 mm 1 mps 671 mmHg 74%
    19:00 +7°C° 0 mm 1 mps 671 mmHg 78%
    20:00 +6°C° 0 mm 1 mps 672 mmHg 83%
    21:00 +5°C° 0 mm 1 mps 672 mmHg 87%
    22:00 +4°C° 0 mm 0 mps 672 mmHg 87%
    23:00 +4°C° 0 mm 0 mps 672 mmHg 87%

    1 March, Wednesday

    Time Temperature Precipitation Wind Pressure Humidity
    00:00 +3°C° 0 mm 0 mps 671 mmHg 87%
    01:00 +3°C° 0 mm 0 mps 671 mmHg 88%
    02:00 +2°C° 0 mm 0 mps 671 mmHg 88%
    03:00 +2°C° 0 mm 0 mps 671 mmHg 88%
    04:00 +2°C° 0 mm 0 mps 671 mmHg 88%
    05:00 +2°C° 0 mm 0 mps 671 mmHg 89%
    06:00 +1°C° 0 mm 0 mps 672 mmHg 89%
    07:00 +5°C° 0 mm 0 mps 673 mmHg 77%
    08:00 +9°C° 0 mm 0 mps 675 mmHg 64%
    09:00 +13°C° 0 mm 0 mps 676 mmHg 52%
    10:00 +14°C° 0 mm 0 mps 676 mmHg 46%
    11:00 +18°C° 0 mm 1 mps 677 mmHg 39%
    12:00 +19°C° 0 mm 1 mps 677 mmHg 33%
    13:00 +19°C° 0 mm 1 mps 676 mmHg 33%
    14:00 +19°C° 0 mm 1 mps 676 mmHg 34%
    15:00 +18°C° 0 mm 2 mps 675 mmHg 34%
    16:00 +15°C° 0 mm 1 mps 675 mmHg 45%
    17:00 +11°C° 0 mm 1 mps 674 mmHg 56%
    18:00 +8°C° 0 mm 1 mps 673 mmHg 67%
    19:00 +7°C° 0 mm 1 mps 674 mmHg 71%
    20:00 +7°C° 0 mm 1 mps 674 mmHg 75%
    21:00 +5°C° 0 mm 0 mps 674 mmHg 79%
    22:00 +6°C° 0 mm 1 mps 674 mmHg 77%
    23:00 +6°C° 0 mm 1 mps 673 mmHg 75%

    2 March, Thursday

    Time Temperature Precipitation Wind Pressure Humidity
    00:00 +6°C° 0 mm 1 mps 673 mmHg 73%
    01:00 +6°C° 0 mm 1 mps 673 mmHg 68%
    02:00 +6°C° 0 mm 1 mps 673 mmHg 64%
    03:00 +5°C° 0 mm 2 mps 673 mmHg 60%
    04:00 +5°C° 0 mm 2 mps 673 mmHg 60%
    05:00 +5°C° 0 mm 2 mps 673 mmHg 60%
    06:00 +5°C° 0 mm 2 mps 673 mmHg 59%
    07:00 +8°C° 0 mm 2 mps 674 mmHg 52%
    08:00 +12°C° 0 mm 2 mps 675 mmHg 46%
    09:00 +15°C° 0 mm 2 mps 676 mmHg 39%
    10:00 +16°C° 0 mm 2 mps 676 mmHg 35%
    11:00 +18°C° 0 mm 2 mps 676 mmHg 31%
    12:00 +20°C° 0 mm 2 mps 676 mmHg 27%
    13:00 +19°C° 0 mm 2 mps 675 mmHg 27%
    14:00 +19°C° 0 mm 2 mps 675 mmHg 28%
    15:00 +19°C° 0 mm 2 mps 674 mmHg 29%
    16:00 +16°C° 0 mm 2 mps 674 mmHg 39%
    17:00 +13°C° 0 mm 2 mps 673 mmHg 50%
    18:00 +10°C° 0 mm 1 mps 672 mmHg 60%
    19:00 +10°C° 0 mm 1 mps 672 mmHg 59%
    20:00 +9°C° 0 mm 1 mps 672 mmHg 58%
    21:00 +9°C° 0 mm 1 mps 672 mmHg 57%
    22:00 +8°C° 0 mm 2 mps 672 mmHg 55%
    23:00 +8°C° 0 mm 2 mps 672 mmHg 53%
    Show more